Temp
16 16 16 17 17 17 17 17 17 17 17 18 18 18 18 18 18 18 18 18 18 18 18 18 18 18 18 19 19 20 20 19 20 20 19 17 17 17 18 18 19 18 19 19 20 20 21 22 23 23 23 23 22 23 23 23 23 22 21 20 20 21 21 21 21 21 22 21 20 21 21 20 18 17 17 18 17 16 15 14 13 12 11 11 10 9 8 8
17 17 17 17 17 17 17 18 18 18 18 18 18 18 18 18 18 18 18 18 18 18 18 18 18 18 18 19 19 20 20 19 21 20 17 17 18 18 19 19 19 19 19 19 20 21 22 23 23 23 22 22 23 23 23 23 23 22 21 20 21 22 21 20 21 21 21 21 21 21 21 20 19 17 17 17 16 15 14 13 12 11 10 10 10 9 8 8
17 17 17 18 18 18 18 18 18 18 18 18 18 18 18 18 18 18 18 18 18 18 18 18 18 19 19 19 19 20 19 20 21 19 17 18 18 18 19 19 19 19 19 18 19 21 21 22 23 23 23 22 23 23 22 22 22 22 21 20 21 22 20 19 19 19 20 21 21 21 20 19 18 18 17 18 16 15 15 13 12 11 10 10 10 9 9 8
17 18 18 18 18 18 18 18 18 18 18 18 18 18 18 18 18 19 19 19 18 18 18 18 19 19 19 19 19 19 19 20 21 19 18 18 18 19 19 19 19 19 19 18 19 20 21 22 22 23 22 22 23 23 22 22 22 22 22 21 21 21 20 19 18 18 19 20 21 20 19 18 17 18 17 18 17 16 15 13 13 12 10 10 10 9 9 9
17 18 18 18 18 18 18 18 18 19 19 19 19 19 19 19 19 19 19 19 19 18 18 19 19 19 19 19 19 19 19 19 19 19 18 18 18 18 19 19 19 19 19 18 19 20 21 22 22 22 22 22 23 23 23 23 22 22 22 21 20 20 19 18 17 17 17 19 20 20 19 17 17 17 16 16 17 15 12 11 13 13 11 10 10 10 9 9
17 18 18 18 18 18 18 19 19 19 19 19 19 19 19 19 19 19 19 19 19 18 18 19 19 19 19 19 19 19 19 19 19 19 18 18 18 18 18 18 19 19 19 19 20 21 21 22 22 22 22 22 22 23 23 24 23 21 21 20 18 19 18 17 17 17 17 19 19 18 17 16 17 16 15 14 13 11 10 10 11 11 11 10 10 10 9 9
18 18 18 18 18 19 19 19 19 19 19 19 19 19 19 19 19 19 19 19 19 18 19 19 19 19 19 19 19 19 19 19 18 18 17 18 18 18 18 18 19 19 19 20 21 22 22 22 22 22 22 22 22 23 23 24 23 21 21 19 18 18 17 16 16 16 17 17 16 16 16 16 16 16 15 13 10 9 9 10 10 10 10 10 10 10 9 9
18 18 18 19 19 19 19 19 19 19 19 19 19 19 19 19 19 19 19 19 19 19 19 19 19 19 19 19 19 19 20 18 18 17 17 18 18 18 18 19 19 19 20 20 21 21 21 22 22 22 22 22 23 23 22 22 22 21 20 19 18 17 17 16 16 16 16 16 16 16 16 16 15 14 14 12 10 9 9 9 9 9 9 9 9 9 9 9
18 18 18 19 19 19 19 19 19 19 19 19 19 19 19 19 19 20 19 19 19 19 19 19 19 19 19 19 20 20 19 17 17 17 17 17 17 18 18 19 19 19 21 21 21 21 21 21 22 22 22 22 23 22 20 21 21 20 19 18 18 17 17 16 16 16 16 16 16 16 16 15 13 13 14 12 10 9 9 9 9 8 8 9 9 9 9 9
18 18 19 19 19 19 19 19 19 19 19 19 19 19 19 19 19 19 19 19 19 19 19 19 19 19 19 19 21 20 17 17 17 17 17 17 17 18 18 18 18 19 21 21 21 21 21 21 21 22 21 21 22 20 19 20 19 19 19 18 18 17 17 17 16 16 16 16 15 16 16 15 13 13 14 11 9 9 9 9 9 8 8 8 8 8 9 9
18 18 18 19 19 19 19 19 19 19 19 19 19 19 19 19 19 19 19 19 19 19 19 19 19 19 19 20 20 19 17 17 17 17 17 17 18 18 18 18 18 19 20 21 21 20 20 20 21 21 20 20 21 20 19 19 19 19 18 17 17 17 17 17 16 16 16 15 15 15 16 15 13 13 13 11 9 9 9 9 8 8 8 8 8 7 7 8
18 18 18 18 19 19 19 19 19 19 19 19 19 19 19 19 19 19 19 19 19 19 19 19 19 19 19 20 19 17 17 17 17 17 17 17 18 18 18 18 18 19 20 21 20 19 19 19 20 21 20 19 20 19 18 19 19 19 18 18 17 17 16 16 17 16 16 15 15 15 15 16 14 12 12 10 9 9 9 9 8 9 9 8 8 7 7 7
18 18 18 18 19 19 19 19 19 19 19 19 19 19 19 19 19 19 19 19 19 19 19 19 19 19 19 19 18 17 17 17 17 18 17 18 18 18 18 18 18 19 19 20 19 19 19 19 20 20 19 19 19 18 18 19 19 18 18 18 17 17 16 16 17 16 16 15 15 15 14 16 16 12 11 10 10 10 9 10 9 9 9 8 8 7 7 7
18 18 18 18 19 19 19 19 19 18 18 18 19 19 19 19 19 19 19 19 19 19 19 20 20 19 19 19 18 18 18 18 18 17 17 18 18 19 19 19 19 19 19 19 19 19 19 20 21 20 18 19 18 17 18 18 19 18 18 18 17 17 16 16 16 16 16 15 15 15 14 16 16 12 11 10 10 10 10 10 10 9 9 8 8 7 7 7
18 18 18 18 19 19 19 19 18 18 18 18 18 18 18 19 19 19 19 19 19 19 19 20 20 20 20 18 18 18 18 18 18 17 17 17 17 18 19 19 19 19 19 19 19 19 20 20 20 20 18 18 17 17 18 18 18 18 18 17 18 17 16 15 16 16 15 15 15 15 14 16 16 13 11 10 10 10 10 11 11 10 9 9 8 7 7 7
18 18 18 19 19 19 19 19 19 18 18 18 18 18 18 19 19 19 19 19 19 19 19 20 20 21 20 18 19 19 18 18 18 17 17 17 17 17 18 19 19 19 19 19 19 19 20 20 19 18 18 18 18 18 18 18 18 18 18 17 18 18 16 15 15 15 15 15 15 15 14 15 16 13 11 11 10 10 11 11 11 11 10 9 8 8 7 7
18 18 18 19 19 19 19 19 19 18 18 18 18 18 18 18 19 19 19 19 19 19 19 20 21 21 19 19 19 18 18 18 17 17 18 17 17 17 18 19 20 20 20 20 20 20 20 20 18 18 19 19 18 18 18 17 17 17 17 17 18 18 17 16 14 14 15 15 15 15 14 14 16 14 11 11 11 10 11 11 12 12 11 10 9 9 8 8
18 18 18 18 18 19 19 19 18 18 18 18 18 18 19 19 19 19 19 19 19 20 20 20 20 19 18 18 18 18 18 18 17 18 18 17 17 17 18 19 20 20 20 20 20 20 20 20 19 19 18 17 16 16 16 15 15 15 15 16 16 16 17 17 15 13 14 14 14 14 14 14 16 16 12 10 11 10 10 11 12 12 11 11 10 9 9 8
18 18 18 18 18 18 18 18 18 18 18 18 18 19 19 19 19 19 19 19 18 18 18 18 18 18 17 17 17 17 18 18 17 18 17 17 17 17 18 19 19 19 19 19 20 20 19 19 19 18 16 15 15 14 14 14 14 15 15 15 15 15 16 17 15 13 13 13 13 14 14 15 16 16 13 11 11 11 11 11 12 12 12 11 10 10 10 9
18 18 18 18 18 18 18 18 18 18 18 18 18 19 19 19 19 18 17 17 17 17 17 17 17 18 17 17 17 17 17 18 18 18 17 17 17 18 19 20 20 19 19 18 18 19 18 17 15 14 14 14 14 14 14 14 15 15 15 15 15 15 16 16 15 13 12 13 13 14 14 14 15 16 16 13 11 10 11 11 11 11 11 11 11 10 10 10
18 18 18 18 18 18 18 18 18 18 18 18 18 19 19 19 19 17 16 16 16 17 17 17 17 17 17 17 17 16 16 18 18 18 16 17 18 18 18 19 19 19 18 17 18 18 17 15 13 14 14 13 13 14 14 14 14 15 15 15 16 15 15 16 15 13 13 13 13 14 14 14 14 15 17 15 12 10 11 11 11 11 11 11 11 11 10 10
17 18 18 18 18 18 18 18 18 18 18 18 18 19 19 17 17 17 17 16 16 17 18 18 18 18 17 17 17 16 16 17 18 17 15 16 18 18 17 19 19 18 18 18 18 17 16 14 13 14 14 13 14 14 14 14 14 14 15 15 15 15 14 14 14 13 13 12 12 13 13 13 14 14 16 16 13 11 11 11 12 12 11 11 11 11 11 10
17 18 18 18 18 18 18 18 18 18 18 18 18 19 18 16 17 17 18 18 16 16 17 17 17 17 17 17 16 16 16 15 16 16 15 15 17 16 16 17 18 18 17 17 17 16 15 13 13 13 13 13 14 15 15 14 14 14 15 15 14 14 13 13 13 14 14 13 13 13 12 12 13 14 15 16 14 13 13 12 12 12 12 11 11 11 11 10
17 18 18 18 17 17 18 18 18 18 17 18 18 18 18 17 18 17 18 19 17 16 17 17 17 16 16 16 16 16 16 15 15 15 15 14 15 16 16 16 16 17 16 16 16 15 13 13 13 13 13 13 14 14 14 13 14 14 14 14 13 13 12 12 13 13 13 14 13 13 12 13 15 15 16 16 14 13 13 13 12 12 12 12 12 12 11 11
17 18 18 17 17 17 17 18 18 17 18 18 18 18 18 18 18 17 18 19 18 16 16 16 17 16 15 16 16 16 16 15 15 15 15 14 13 15 15 15 15 16 15 15 15 14 13 13 13 13 14 14 14 14 13 12 13 14 12 12 12 12 12 12 12 12 12 13 13 12 12 15 17 17 17 16 14 13 13 13 12 12 12 12 11 11 11 11
18 18 17 17 18 17 18 18 17 18 18 17 17 18 18 18 18 18 18 19 19 16 16 16 17 16 15 16 17 16 15 15 15 15 15 14 13 13 14 15 15 14 14 14 14 14 14 14 13 13 13 14 14 13 13 12 13 13 12 11 11 11 11 11 12 11 12 13 13 13 12 13 15 16 17 16 14 13 13 12 11 11 11 11 11 11 11 11
18 17 17 17 17 17 18 18 18 18 17 16 17 18 18 18 18 18 18 19 18 16 16 17 17 16 15 17 17 15 15 15 15 16 15 14 14 13 14 15 15 14 13 13 14 13 13 14 13 13 13 14 14 13 12 12 12 13 12 11 11 11 11 12 12 11 12 13 14 13 13 12 13 15 17 15 13 13 13 12 12 11 11 11 11 11 11 11
18 17 17 17 17 18 17 17 18 17 17 16 17 17 18 18 18 18 18 18 18 17 16 17 16 16 16 17 17 16 15 15 15 15 15 15 14 14 15 14 14 14 13 13 14 13 13 13 13 12 13 13 13 13 12 12 12 12 11 11 11 11 11 11 11 11 12 13 13 13 13 12 13 16 16 14 14 14 14 14 13 12 12 12 11 11 11 11
17 17 17 17 17 17 17 17 17 16 16 17 17 18 18 18 18 18 18 18 17 16 15 16 16 16 16 16 16 15 15 15 14 15 16 15 15 15 14 14 14 14 13 13 14 13 12 12 12 12 12 12 12 13 12 11 12 13 12 11 11 10 10 11 10 11 12 12 12 13 13 13 13 16 17 15 14 15 15 16 16 15 13 13 12 12 11 11
17 17 16 16 17 17 17 17 16 16 17 17 17 18 18 18 18 18 18 18 17 16 15 16 16 15 15 15 15 15 15 14 14 15 15 15 15 15 13 13 14 14 14 14 13 12 12 11 11 12 12 12 12 12 12 12 12 12 11 11 11 11 10 10 11 12 12 12 13 13 13 13 13 15 17 17 16 17 17 17 18 17 15 14 13 12 12 12
17 17 16 16 16 16 16 16 16 16 16 17 17 17 18 18 18 18 18 17 17 16 15 15 15 14 15 15 15 15 14 14 14 14 15 15 15 15 14 13 13 14 14 14 13 12 11 11 11 11 11 12 11 11 12 12 11 11 10 11 12 12 11 11 12 12 12 13 13 12 12 12 12 14 17 17 17 17 18 17 17 17 17 16 15 13 13 12
16 16 16 16 16 16 16 16 15 15 16 17 17 18 18 18 18 19 18 17 16 16 15 14 14 14 14 14 14 13 13 14 14 13 13 14 14 12 12 12 12 14 16 15 14 13 11 11 12 11 10 11 11 11 12 11 11 11 11 12 13 14 14 13 13 13 13 13 12 11 12 12 12 14 16 16 17 17 18 17 17 17 17 17 16 15 14 13
15 15 15 15 16 16 15 15 15 15 16 17 17 18 18 18 18 17 17 17 16 14 13 13 14 14 13 14 14 12 13 13 14 13 13 13 14 11 11 12 11 13 15 15 15 15 13 12 12 11 11 11 11 12 12 12 11 12 12 12 12 13 13 12 13 14 14 14 12 11 12 12 13 15 16 16 17 17 17 17 16 16 16 16 16 15 14 13
15 15 15 15 15 15 15 15 15 15 16 17 18 18 18 18 18 16 16 16 14 13 13 13 14 14 13 14 13 12 13 13 13 14 13 14 15 14 12 12 11 12 13 14 14 14 14 14 13 12 11 11 11 12 12 12 11 12 13 12 12 12 12 12 13 13 13 13 12 12 12 12 14 16 17 18 17 17 17 16 15 15 14 14 14 13 13 12
15 15 15 15 14 14 14 15 16 16 17 17 18 18 18 19 19 17 16 15 13 14 13 12 13 14 14 14 12 11 12 14 13 13 14 14 15 15 13 12 11 11 12 14 13 13 15 15 12 11 11 11 11 11 11 11 12 12 13 12 12 12 12 12 12 12 11 11 11 11 12 14 15 17 17 17 17 17 16 15 14 14 13 13 12 12 12 11
15 15 15 15 14 14 15 15 16 16 17 17 18 18 17 17 16 16 15 13 14 14 14 13 13 15 17 15 13 12 11 13 13 14 15 15 14 14 12 11 10 10 11 13 13 13 14 15 11 10 11 10 10 11 10 11 12 12 12 12 11 11 12 12 11 12 11 10 11 12 12 14 15 16 16 17 17 17 16 15 14 14 14 13 12 12 11 11
16 16 15 15 15 15 15 15 16 17 17 18 18 18 16 14 13 12 12 12 13 13 14 16 15 15 18 17 15 14 12 12 13 14 15 15 14 13 12 10 10 10 10 11 12 12 13 14 12 11 11 9 9 9 10 10 11 11 11 11 11 11 11 11 10 11 11 10 12 13 13 14 14 14 16 16 16 16 16 15 15 14 14 14 13 13 12 12
15 16 15 15 15 15 15 16 17 17 17 18 18 16 14 13 11 11 11 11 12 13 14 16 15 14 16 17 16 14 13 14 15 15 16 15 14 13 12 11 9 9 9 9 11 12 11 13 12 11 11 10 8 9 10 10 9 10 10 10 11 11 11 11 10 10 10 10 11 13 13 13 13 14 15 16 16 16 16 15 15 15 15 15 14 14 14 13
15 16 16 15 15 16 16 17 17 17 18 18 18 17 13 11 10 9 9 10 11 13 14 16 15 14 15 16 15 14 13 14 15 15 16 16 15 13 12 11 10 9 9 9 10 11 11 13 13 11 11 10 9 10 11 10 9 9 9 10 11 11 11 11 11 10 10 10 10 11 12 13 14 15 16 16 16 17 16 16 16 16 15 15 15 15 14 14
16 16 16 16 16 16 16 17 17 18 18 17 16 16 13 10 9 8 7 8 10 12 14 15 15 15 15 14 14 14 13 13 14 15 15 15 15 13 11 11 10 8 8 9 9 11 11 12 13 12 10 10 11 11 12 12 10 9 9 9 10 10 10 10 10 10 11 10 10 10 11 12 15 16 16 16 16 16 16 16 15 15 15 15 15 14 15 14
17 17 16 16 16 17 17 17 16 17 17 15 14 13 12 11 9 8 7 8 9 11 11 12 13 14 15 14 14 14 13 14 14 14 15 15 14 14 12 11 10 9 8 9 9 10 11 11 12 12 11 12 13 11 11 11 11 10 10 10 10 10 10 10 10 10 10 10 10 10 10 11 14 16 16 16 16 16 16 15 15 15 15 15 14 14 14 14
17 17 16 16 17 17 17 16 15 15 16 14 12 11 11 11 10 9 8 8 9 10 10 11 12 13 14 14 14 13 13 14 14 14 15 15 14 13 11 10 10 9 9 10 10 9 10 10 10 11 12 13 12 9 8 9 10 10 11 12 12 11 10 10 10 10 9 9 10 9 9 10 14 16 15 15 16 16 16 15 15 15 14 14 14 14 14 14
17 17 16 16 17 17 17 16 15 15 13 11 10 10 10 11 10 9 9 9 10 10 11 11 12 12 13 13 13 13 13 14 14 14 14 14 13 9 8 10 10 9 10 10 9 9 9 10 10 10 13 13 10 8 8 8 9 10 11 11 12 11 11 10 10 9 9 9 9 8 8 10 13 15 15 15 15 15 15 15 14 14 13 13 13 13 13 13
17 16 16 17 17 17 17 17 16 15 12 10 10 10 10 11 10 10 10 10 11 11 12 12 12 12 12 12 12 13 13 14 15 14 13 14 11 7 6 8 9 9 9 9 9 10 10 11 11 11 12 13 12 11 11 9 9 10 10 11 11 11 10 9 9 9 8 9 10 9 9 11 13 14 14 15 15 14 14 14 14 13 13 13 13 13 13 13
16 16 16 16 16 16 16 15 16 15 12 11 12 11 10 11 10 10 11 11 11 11 12 12 11 11 11 11 11 12 12 13 14 13 12 12 10 6 5 6 7 8 7 6 7 8 9 11 11 11 12 12 13 14 14 12 11 11 11 11 11 10 10 9 9 9 8 9 10 9 9 12 13 14 14 14 14 14 13 13 13 13 13 13 12 12 12 12
17 16 16 16 16 16 14 13 15 15 13 12 13 12 12 12 10 9 10 11 11 11 11 11 10 11 11 11 11 12 11 12 12 12 11 11 10 6 4 5 5 6 5 5 6 7 9 9 10 10 11 12 13 14 13 12 12 11 11 11 11 10 9 9 10 9 9 9 9 10 10 11 12 13 13 13 13 13 13 12 12 12 12 12 12 12 12 12
16 17 16 16 16 16 15 14 15 15 14 14 15 14 13 13 11 10 9 10 10 10 11 11 11 11 12 11 12 13 13 12 11 11 10 11 10 7 3 4 5 4 5 6 6 7 8 8 9 9 10 11 12 12 12 11 10 10 10 10 11 10 8 8 8 9 10 9 9 10 11 11 11 12 12 12 12 12 12 11 11 11 11 11 11 11 11 11
15 16 14 13 15 16 15 15 14 14 14 15 14 13 13 13 12 12 11 9 9 10 11 12 11 11 12 12 13 13 13 13 12 11 11 10 10 8 5 4 4 4 5 6 6 7 7 7 8 9 9 9 10 10 10 10 9 10 10 9 10 9 8 8 8 9 9 9 9 11 11 10 11 11 11 11 11 11 11 11 11 11 11 11 11 11 11 11
14 14 12 11 13 14 13 13 14 14 14 15 14 13 14 14 13 13 12 10 10 10 11 13 12 11 12 12 13 13 13 14 14 12 11 10 9 9 9 7 5 3 4 5 5 6 7 7 8 8 8 8 8 8 9 9 9 9 10 10 10 10 9 8 8 8 9 8 9 10 9 9 10 10 10 11 11 11 11 11 11 11 11 11 11 10 11 10
15 15 14 13 13 12 11 12 14 14 14 14 15 14 14 14 14 13 12 12 13 12 10 12 13 13 12 12 12 13 13 15 15 13 12 11 10 10 10 11 7 3 4 5 6 6 7 7 8 8 7 7 9 9 10 10 10 10 10 10 10 10 10 9 8 8 8 8 8 9 8 8 9 10 10 11 11 11 11 11 10 10 10 10 10 10 10 10
14 14 14 15 15 12 12 13 14 15 16 15 15 15 14 15 15 14 13 14 14 13 11 12 13 13 13 12 12 13 13 13 14 12 11 11 11 11 11 11 9 5 4 5 6 6 6 6 8 8 7 8 10 11 10 10 10 9 10 10 10 10 11 10 10 9 9 8 8 8 7 8 10 11 11 11 11 10 10 10 10 10 10 10 9 9 10 9
13 13 14 16 16 13 13 14 14 15 16 16 16 15 15 15 15 15 15 14 13 13 12 12 13 13 12 13 12 12 11 11 11 10 10 10 10 11 11 10 10 8 5 5 5 5 5 5 7 8 7 8 10 11 10 9 9 10 11 11 11 11 11 10 10 10 10 10 9 8 8 9 10 10 10 10 10 9 9 9 9 9 9 9 9 9 9 8
Height
811 811 811 810 810 810 809 809 809 808 808 808 807 807 807 807 806 807 807 807 807 807 807 808 808 808 808 808 808 807 807 807 807 807 808 811 811 810 808 807 806 805 804 803 802 801 800 800 799 799 800 800 800 799 797 797 797 802 809 816 817 810 806 804 804 802 799 803 803 800 799 803 812 812 811 811 813 817 820 823 825 827 829 831 832 831 832 834
811 811 811 811 810 810 809 809 808 808 807 807 806 806 806 806 806 806 806 806 807 807 807 807 807 808 808 808 808 807 807 807 807 808 810 811 810 809 807 806 805 804 803 803 802 801 800 798 797 798 799 800 798 797 798 796 798 804 808 814 812 804 804 803 802 801 799 801 800 800 800 802 808 810 811 813 818 820 822 826 827 830 833 833 835 835 836 836
811 811 811 811 811 810 809 809 808 808 807 806 806 806 805 805 805 805 805 806 806 806 807 807 807 807 808 808 808 808 808 807 807 810 812 811 809 808 806 805 804 804 802 802 802 802 801 799 798 797 799 800 797 797 799 798 799 802 806 812 807 799 803 804 803 803 801 799 797 800 802 805 808 808 810 812 817 819 820 825 828 831 833 834 836 837 838 837
811 811 811 811 811 810 809 809 808 807 806 806 806 805 805 805 805 805 805 805 806 806 807 807 807 807 808 808 808 808 808 808 809 811 812 810 809 806 805 805 803 803 802 802 802 802 801 800 799 798 799 801 796 795 798 798 798 799 802 808 803 798 803 806 806 806 804 800 799 801 804 809 810 809 810 810 814 817 818 823 824 826 831 834 836 837 838 838
812 812 812 811 811 810 809 808 808 807 806 806 806 806 805 805 805 804 804 805 805 806 806 807 807 807 808 808 809 808 809 814 814 811 811 809 808 806 805 804 803 803 802 802 802 801 801 800 799 799 800 801 797 796 797 795 795 799 799 802 802 801 805 808 808 808 806 802 800 803 807 811 812 811 814 813 814 819 823 826 823 823 830 833 835 837 838 839
813 812 812 812 811 810 809 809 808 807 807 806 806 805 805 805 805 804 804 804 804 805 806 806 807 807 808 808 809 809 812 818 815 811 811 808 807 806 805 804 803 803 802 802 801 800 800 799 799 800 800 801 799 797 795 790 792 801 801 801 805 804 807 811 809 810 808 804 806 808 810 811 812 814 816 819 821 825 828 828 825 826 830 833 835 836 837 838
813 813 813 812 811 810 809 809 808 807 807 806 806 805 805 805 804 804 804 804 804 805 806 807 807 807 808 808 809 810 810 814 813 811 810 808 807 806 805 805 803 803 802 802 801 800 799 798 799 799 799 800 797 794 793 789 791 801 803 804 808 807 810 813 811 812 810 810 812 812 812 812 814 816 817 821 827 829 829 829 829 830 831 833 835 836 837 838
813 813 813 812 811 810 810 809 808 807 807 807 806 806 805 805 805 804 804 804 805 805 806 807 807 807 808 808 809 809 810 813 813 812 810 808 807 806 805 804 804 804 802 802 801 799 799 799 798 797 799 799 794 794 795 794 795 799 803 806 809 810 811 813 812 813 812 813 814 812 814 815 817 819 818 821 827 828 829 830 831 832 832 834 834 835 837 837
813 813 813 812 812 811 810 809 809 808 807 807 806 806 805 805 805 804 804 805 805 806 807 807 807 808 808 809 808 810 814 815 813 812 810 808 807 806 806 805 804 804 802 802 801 800 800 799 798 797 799 797 794 797 798 801 803 802 805 807 809 812 812 812 812 814 814 814 814 814 815 817 819 821 818 820 825 827 829 830 831 832 833 833 834 835 835 837
813 813 813 813 812 811 811 810 809 808 808 807 807 806 806 805 805 805 805 805 806 807 807 807 808 808 809 808 807 812 816 814 813 812 810 809 808 807 806 805 805 804 802 802 801 801 801 800 799 796 799 798 796 801 801 804 807 805 807 808 810 813 812 813 813 814 815 815 816 816 815 814 819 821 818 820 825 827 829 830 831 832 833 833 834 835 835 836
814 813 813 813 813 812 811 810 810 809 808 808 808 807 806 806 806 806 806 806 807 807 808 808 808 809 809 807 809 815 816 814 814 812 811 810 809 808 807 806 805 805 803 802 802 803 802 801 800 798 801 801 799 803 805 805 805 805 808 811 813 813 813 813 814 815 815 816 816 816 815 814 819 820 816 820 825 826 828 829 830 830 831 833 834 835 836 836
814 814 814 814 813 812 811 811 810 809 809 808 808 808 807 807 807 807 807 807 808 808 809 809 809 810 809 809 814 817 816 814 814 812 811 810 809 808 807 807 806 806 804 802 803 803 803 802 801 801 803 803 803 807 808 805 804 806 808 812 814 813 815 814 813 815 815 817 816 817 818 812 814 818 816 821 824 824 826 827 829 829 829 831 833 835 835 836
815 814 814 813 813 812 811 811 810 809 809 809 809 808 808 808 808 808 808 808 809 809 810 810 810 809 810 813 817 817 816 815 814 813 812 810 809 808 808 808 807 806 806 804 804 804 803 803 801 802 803 804 807 810 809 805 805 809 808 810 814 814 817 815 813 815 815 818 816 818 822 809 806 815 818 821 822 823 825 824 826 827 827 829 831 832 833 834
815 814 813 813 812 812 811 810 810 810 809 809 809 809 809 809 809 809 809 810 810 810 811 810 811 809 811 816 817 816 815 815 814 813 811 810 809 809 808 808 808 807 806 806 805 804 804 803 802 803 804 805 808 810 809 808 808 811 810 810 813 816 819 816 814 815 816 818 815 819 824 810 805 814 817 819 820 821 822 822 823 825 825 827 828 830 831 831
814 813 813 812 811 811 811 810 810 810 810 810 810 810 810 810 811 810 811 811 811 812 811 811 811 810 812 816 816 816 815 814 814 814 812 811 810 809 809 809 808 807 807 806 805 805 804 803 802 804 806 807 809 811 812 811 810 810 814 816 812 814 820 819 816 816 818 818 815 820 823 810 804 811 815 817 818 819 819 818 819 821 822 824 826 827 828 828
814 812 812 812 811 811 811 811 811 811 811 811 811 811 811 812 812 812 812 812 812 812 811 811 811 810 814 817 816 815 816 815 815 815 813 812 812 810 810 809 808 807 807 806 805 805 804 802 804 806 807 809 809 811 812 812 810 808 814 817 810 810 818 821 820 817 817 818 815 818 820 810 805 810 814 815 816 817 816 815 814 817 819 820 823 824 825 826
813 812 812 812 811 811 811 811 811 811 812 812 812 813 813 813 813 813 813 812 813 812 812 812 810 810 815 817 816 817 817 817 816 815 813 812 812 811 810 809 807 806 806 805 804 804 803 803 807 807 806 809 810 812 816 820 820 816 816 817 811 810 813 817 822 821 818 819 818 816 817 812 805 807 813 814 814 815 814 812 811 812 814 816 819 820 821 823
813 812 812 812 812 812 812 812 812 812 813 813 814 814 814 814 814 814 814 814 813 812 813 813 811 816 821 819 819 820 818 817 816 814 814 813 811 811 811 809 807 807 805 804 804 803 803 803 805 807 811 816 819 822 827 831 832 829 826 824 820 818 814 813 820 824 820 820 820 818 815 810 802 800 808 811 811 812 811 809 808 808 810 812 815 816 817 818
813 812 812 812 812 813 813 812 812 813 813 814 815 814 814 814 814 814 815 815 816 818 820 820 818 823 826 822 821 821 818 817 816 815 815 813 812 811 810 809 808 807 807 807 807 805 806 808 810 816 825 829 829 831 834 833 832 831 828 827 826 824 818 813 819 824 823 823 821 818 814 808 800 797 803 808 808 809 808 807 806 806 807 809 811 812 812 813
813 813 813 813 813 813 813 814 813 814 814 815 815 816 816 815 816 819 819 819 821 824 826 825 822 823 824 822 822 820 818 817 817 816 816 813 813 811 809 808 807 807 811 814 813 808 809 819 828 832 835 835 833 833 833 830 830 829 827 826 824 823 819 814 818 824 824 824 819 814 812 806 800 795 795 801 805 808 807 805 805 804 805 806 807 808 808 809
813 813 813 813 813 813 814 814 814 814 814 815 816 816 816 816 818 823 824 825 826 825 825 825 823 824 824 824 823 822 821 819 816 817 817 814 812 812 810 807 808 812 814 815 815 810 813 827 837 836 834 835 835 833 833 832 830 828 828 827 823 823 824 817 819 825 824 825 820 814 813 806 799 795 789 793 802 804 802 802 802 802 802 803 804 805 805 806
814 813 813 813 813 813 814 815 815 815 815 816 816 815 815 815 817 818 820 826 829 825 824 825 823 824 825 824 824 823 823 822 819 818 818 814 812 814 813 809 812 816 814 813 815 817 823 834 837 834 835 835 833 831 831 832 831 830 828 826 825 825 827 821 820 823 822 826 823 815 815 806 796 794 788 787 794 796 796 797 797 798 799 800 800 802 803 804
814 813 813 813 813 813 814 815 815 815 816 816 816 815 815 815 816 816 817 823 829 827 825 825 825 826 826 825 825 823 824 827 825 823 822 819 816 817 818 816 817 817 818 819 820 823 831 837 837 835 837 835 832 830 830 830 830 830 828 827 829 829 833 831 825 822 821 822 818 815 818 807 793 791 785 780 785 789 791 792 793 794 795 796 797 798 800 801
815 814 813 813 812 813 814 815 815 815 816 816 816 816 816 816 816 817 817 820 827 828 827 827 826 827 828 827 827 825 826 828 828 827 825 824 821 819 821 823 822 822 825 825 825 830 837 839 837 837 837 836 835 832 833 836 832 830 831 832 833 834 837 836 829 824 820 816 815 817 817 801 785 785 781 777 783 786 787 789 790 792 792 793 794 795 796 797
815 814 813 813 813 813 814 815 815 815 816 816 816 816 816 817 817 817 818 821 827 829 828 828 827 828 829 828 827 827 827 828 829 829 827 826 826 823 824 825 825 828 830 828 827 834 839 838 837 837 836 834 836 835 837 840 835 833 836 837 837 837 838 836 831 829 824 817 817 820 819 799 780 781 779 778 784 786 786 788 789 790 791 792 793 792 793 794
815 814 813 813 813 814 814 814 814 814 815 816 816 816 816 818 818 817 819 824 828 831 831 828 828 829 829 828 827 826 829 831 830 829 828 828 828 827 827 825 826 831 833 832 833 836 836 836 837 838 838 835 835 837 839 839 838 836 837 839 839 839 839 836 833 833 829 819 814 817 821 810 791 781 776 776 783 785 785 788 788 789 790 790 790 790 790 790
814 814 813 813 813 814 814 813 814 814 815 815 815 816 817 818 818 817 823 831 833 832 831 828 829 832 830 828 826 827 833 833 830 830 828 829 828 827 829 829 829 832 834 835 836 838 837 836 837 837 837 836 834 838 839 839 840 837 837 841 839 837 837 834 833 835 830 819 813 813 817 818 805 785 774 777 784 784 784 785 785 786 786 786 786 787 787 787
814 813 813 813 813 814 814 814 814 814 814 814 815 816 817 818 818 818 828 840 837 831 832 830 830 831 829 828 827 829 834 833 832 832 828 828 829 827 829 831 832 833 835 836 836 839 839 837 839 840 839 837 836 838 838 840 840 836 837 840 837 838 837 834 835 834 826 821 818 812 812 817 806 782 773 781 784 782 779 778 778 779 779 780 781 782 782 782
814 814 813 814 813 814 814 814 814 814 814 815 815 817 818 818 819 821 833 843 836 831 834 832 831 832 830 830 830 831 833 833 835 833 829 829 830 828 831 833 832 833 834 834 836 839 840 839 841 842 841 840 838 838 837 841 840 834 836 837 836 838 837 836 838 833 826 825 820 812 811 816 804 780 774 782 781 778 773 768 767 769 772 774 774 776 777 778
815 814 814 814 814 814 814 814 814 814 815 815 816 818 818 818 822 831 840 840 834 835 835 831 833 835 834 833 834 834 834 835 836 833 830 830 829 828 833 834 833 834 834 834 836 840 841 843 843 841 841 840 840 839 836 838 839 834 836 836 832 834 837 837 834 828 828 824 817 813 811 814 808 783 770 773 772 769 766 763 762 761 764 768 769 770 772 773
815 815 814 814 814 814 814 814 814 814 815 816 817 818 818 821 828 837 840 835 833 836 835 836 839 838 837 838 838 837 837 838 837 835 834 832 831 831 833 836 836 834 833 834 838 841 843 844 842 841 841 840 841 840 836 837 840 840 841 836 828 826 830 831 826 828 832 821 814 817 814 817 815 787 767 766 764 762 762 762 762 760 760 763 764 766 767 768
816 815 814 814 814 814 814 814 814 815 816 817 818 818 822 830 833 834 835 833 835 838 839 842 843 840 841 841 841 842 842 840 838 839 840 837 838 842 841 842 843 837 831 832 835 838 841 842 840 841 842 841 841 839 836 838 840 840 839 835 830 823 821 824 821 821 821 814 815 821 817 815 807 785 771 767 763 760 759 759 760 760 760 760 761 762 764 766
818 817 815 815 815 815 815 815 815 816 816 818 819 818 825 835 836 836 836 833 838 843 844 846 843 843 844 842 844 847 844 842 840 840 842 839 839 847 848 846 847 842 834 833 833 833 836 838 838 840 841 841 840 837 835 836 838 836 833 833 835 832 831 831 822 814 810 809 813 819 819 811 795 778 768 763 760 758 756 758 760 760 761 761 762 762 763 765
819 818 817 816 816 816 816 817 817 818 818 819 820 824 832 835 836 840 839 837 842 845 845 847 844 843 844 843 846 849 845 843 843 840 841 839 836 840 844 845 847 845 841 839 838 837 836 833 834 838 838 839 839 837 837 838 838 834 830 834 838 836 837 834 826 822 820 816 815 817 815 804 787 770 759 756 756 756 756 759 760 761 763 764 764 765 765 766
820 819 819 818 818 818 818 818 818 818 818 820 822 829 835 832 830 834 837 840 844 844 845 848 847 843 842 845 848 850 848 844 842 841 839 837 835 836 841 846 848 848 845 841 841 841 833 827 834 840 838 839 838 837 840 839 837 834 830 834 837 833 832 831 828 826 828 830 827 818 805 789 775 761 754 755 755 755 757 758 760 763 763 765 766 766 767 767
821 820 820 819 819 819 819 819 819 819 820 822 826 831 835 835 835 837 840 843 843 843 845 845 846 842 836 841 846 849 852 847 843 842 838 836 839 840 845 849 852 853 850 844 842 843 834 827 836 841 838 841 841 839 842 839 835 835 833 834 836 835 832 834 833 826 830 837 824 807 796 784 775 763 754 755 755 754 757 758 760 762 761 763 765 765 766 766
821 821 821 821 820 820 820 820 820 820 820 822 828 833 837 842 846 847 847 847 844 844 844 840 843 841 833 835 841 845 851 848 844 842 837 837 840 842 847 852 855 855 854 852 846 846 845 834 834 838 837 842 846 843 842 841 839 838 838 837 837 836 834 838 842 834 832 833 810 792 789 785 783 773 757 755 757 754 756 758 759 759 759 760 760 761 763 762
822 822 821 821 821 820 821 820 820 821 821 825 830 835 840 844 849 851 851 850 847 845 843 838 841 843 837 835 838 844 848 844 840 839 835 835 839 842 846 851 857 856 857 859 850 848 851 839 832 837 838 841 847 844 839 841 844 841 841 841 838 838 836 836 843 839 836 834 811 789 785 783 784 775 760 758 757 754 755 756 756 757 756 757 757 757 757 758
822 822 821 821 821 821 821 821 821 821 822 827 828 832 842 849 852 855 855 853 849 845 842 840 841 843 841 839 840 845 847 843 840 838 835 835 837 842 845 847 855 858 857 858 854 850 850 842 834 836 839 841 845 842 835 836 845 846 845 843 837 839 839 835 839 839 837 836 820 798 787 781 774 764 758 757 754 752 754 754 754 755 754 754 755 754 754 754
821 821 822 822 821 821 821 821 821 821 825 832 833 835 844 851 855 859 858 855 851 848 844 842 842 842 842 843 843 843 846 846 844 840 837 836 837 841 846 846 852 859 859 858 857 853 850 846 838 834 839 840 835 833 826 824 836 845 846 845 842 842 841 838 839 834 830 833 828 816 797 773 760 756 755 755 753 752 754 753 754 754 753 754 754 753 753 752
821 822 823 821 821 822 821 822 826 827 829 835 839 842 846 849 854 858 858 857 854 852 851 849 847 844 842 843 844 845 845 843 843 841 836 836 837 839 845 848 851 857 859 857 857 854 851 848 841 836 836 828 821 825 827 823 828 834 835 835 836 839 840 840 839 832 831 832 824 822 807 770 753 756 754 753 755 753 753 754 754 754 754 754 754 753 752 751
821 823 823 821 822 821 821 827 832 831 831 838 844 848 849 849 852 856 857 858 855 853 854 853 849 846 844 844 844 846 846 842 841 841 836 835 837 841 847 849 849 853 855 854 855 855 853 853 850 841 830 821 821 829 833 831 828 827 827 824 824 830 832 835 835 831 836 832 820 828 822 776 749 753 753 752 753 752 753 754 754 755 755 754 753 752 751 750
821 823 823 821 822 821 823 830 833 833 839 848 851 851 851 849 851 855 855 855 854 852 852 850 849 848 847 847 846 845 846 843 838 837 836 835 840 850 854 850 849 852 852 852 853 855 855 853 851 841 822 817 828 834 834 835 832 828 826 823 823 823 823 827 831 830 835 829 820 834 826 776 747 751 752 751 753 753 754 754 754 755 754 754 753 752 751 750
821 822 822 822 822 822 824 828 830 835 846 851 850 851 852 850 850 852 852 852 851 850 849 847 848 850 849 850 849 845 845 843 837 836 839 837 844 857 858 853 853 853 852 854 852 853 851 844 842 840 825 816 820 822 824 830 833 830 823 821 821 821 825 832 833 835 836 821 815 830 814 767 749 753 751 752 755 754 755 755 754 755 754 754 753 751 751 750
822 824 824 823 822 823 826 828 828 833 845 848 847 850 850 849 852 852 849 850 850 849 848 848 850 851 851 852 850 848 848 845 840 840 843 842 847 859 861 857 857 855 856 860 858 855 852 842 839 840 834 825 814 808 809 815 820 820 816 816 817 820 827 828 827 836 835 814 808 817 797 760 748 753 754 756 757 755 756 756 754 755 754 753 752 751 750 749
823 825 826 824 823 824 828 831 828 831 840 842 840 843 844 845 851 853 850 850 850 850 850 850 852 851 852 853 851 848 848 846 844 845 846 843 845 857 864 861 860 860 861 862 860 857 854 848 843 839 832 823 811 805 807 812 816 816 813 813 815 820 824 824 826 828 820 810 805 796 780 766 757 755 757 758 758 758 757 757 756 756 754 752 751 750 748 747
823 825 827 826 826 826 828 831 829 831 835 835 835 839 841 843 848 852 853 852 851 851 850 849 850 849 848 849 847 843 842 844 847 848 847 845 845 855 865 864 862 863 863 862 860 858 856 851 844 839 833 824 815 812 814 819 822 819 816 814 813 818 824 826 824 812 803 812 804 776 769 775 765 757 761 762 761 761 759 759 758 756 754 752 750 748 747 745
824 826 829 829 828 828 829 830 831 832 833 832 835 839 838 841 845 845 849 853 853 851 849 846 848 847 845 844 842 841 840 841 844 844 843 845 847 852 859 863 864 864 863 862 860 858 859 853 840 837 836 829 825 824 823 824 824 819 816 814 811 816 823 823 815 803 804 813 797 771 771 776 767 764 767 765 764 764 760 759 757 755 754 752 750 748 747 745
827 828 831 832 830 832 834 833 832 832 832 833 836 838 837 838 840 838 843 850 851 850 848 842 841 843 843 842 841 841 838 835 835 836 839 843 847 848 848 851 860 866 864 862 862 860 859 851 840 840 842 835 830 828 825 824 822 817 812 809 806 807 811 813 809 804 805 805 790 781 782 776 769 772 770 765 765 764 760 758 757 755 754 751 750 748 746 744
825 825 828 830 831 835 836 835 832 831 832 833 833 834 835 835 835 836 838 840 839 843 847 841 835 837 839 840 841 838 833 829 828 832 837 839 841 844 840 837 849 865 866 861 861 862 858 849 840 843 845 835 825 821 818 815 815 813 807 800 799 799 798 801 803 802 805 802 791 790 791 781 772 772 769 765 763 761 760 759 757 756 754 752 750 747 745 743
822 822 823 825 829 834 835 833 833 830 830 832 830 829 831 831 830 832 833 831 830 834 841 838 833 834 836 838 838 834 830 830 829 831 835 835 834 836 834 833 842 857 864 862 859 860 861 853 842 843 845 830 816 814 813 811 813 812 804 795 793 792 790 791 792 793 797 798 793 793 794 784 772 767 766 764 762 762 762 761 759 758 755 753 750 747 744 742
822 822 822 822 826 833 834 832 832 830 826 826 825 827 829 828 828 828 828 828 830 832 835 834 832 835 835 834 834 833 832 834 834 835 835 835 833 833 833 834 837 845 855 860 858 858 862 857 845 843 843 827 813 813 816 819 819 807 794 789 787 786 788 789 789 788 788 790 792 792 786 776 769 769 769 767 766 766 765 763 762 759 755 752 749 747 746 744
Wind_Speed
0 1 2 3 4 5 6 7 7 8 8 8 9 9 9 9 9 9 9 9 8 8 7 6 5 4 4 4 3 5 6 4 3 6 9 6 15 18 17 17 15 15 15 10 7 9 8 6 6 6 5 5 5 3 4 5 3 2 2 3 4 5 4 4 6 6 5 5 5 4 2 4 5 4 3 3 6 8 7 7 8 11 11 10 12 16 21 24
1 2 3 4 5 6 7 8 8 8 8 9 9 9 9 9 10 10 9 9 8 7 6 5 5 4 4 5 5 6 5 5 3 9 8 9 19 20 17 16 15 15 13 8 7 8 6 5 4 5 5 4 4 2 2 3 3 3 2 3 4 3 1 5 7 6 6 4 4 4 1 2 5 6 5 4 7 7 6 5 6 8 8 9 12 13 16 20
3 3 3 4 4 5 5 5 6 6 7 6 6 6 7 7 8 9 9 8 7 6 5 5 5 4 5 6 7 7 3 8 3 8 6 13 20 18 16 15 14 13 8 5 6 7 7 9 8 4 5 4 3 4 3 3 3 4 3 4 3 2 3 6 8 7 7 6 2 3 3 4 4 4 4 4 7 8 6 5 4 6 7 7 9 12 14 16
3 3 3 4 4 4 3 3 4 5 5 4 4 5 5 5 6 7 7 8 7 6 5 5 4 4 6 6 9 7 4 7 2 6 10 17 18 15 13 12 10 8 4 3 7 8 8 9 8 7 5 5 4 5 4 3 3 2 4 3 3 4 3 6 8 7 7 7 5 3 4 4 3 2 2 3 5 7 3 2 2 7 10 8 9 11 13 14
3 3 4 5 5 5 3 4 5 5 3 3 4 5 5 6 6 6 5 5 7 6 4 4 4 4 5 6 9 7 4 3 2 9 17 19 16 13 11 9 8 7 4 4 7 8 7 8 7 6 4 4 5 4 4 5 4 3 2 2 5 5 3 5 7 6 6 6 4 2 2 3 3 1 1 4 2 3 2 4 3 7 10 9 10 12 12 13
3 4 4 5 5 5 5 5 6 6 4 5 6 6 7 7 6 5 5 4 5 5 4 4 4 5 5 6 8 6 4 0 5 13 19 19 15 13 11 9 9 7 5 4 7 7 6 7 6 5 4 4 6 6 6 7 5 3 2 5 6 6 4 4 6 5 6 5 3 3 1 2 2 2 2 4 3 2 3 4 5 7 11 11 11 12 11 12
3 3 4 5 6 6 7 7 8 7 6 6 7 7 8 8 7 5 4 2 5 5 4 5 5 5 5 6 6 5 4 3 9 15 19 18 15 12 10 10 11 9 7 6 7 6 5 6 7 5 5 5 6 6 5 3 4 3 3 5 5 6 6 4 4 4 5 5 5 2 0 1 1 0 1 3 5 5 4 4 6 7 9 11 11 10 10 11
3 3 4 4 6 6 7 8 8 7 6 7 7 7 7 6 4 3 2 3 6 6 5 5 5 5 6 6 4 4 2 5 12 16 17 17 15 12 11 10 10 9 7 6 6 6 5 6 7 5 5 4 4 3 2 2 3 4 1 4 4 4 6 4 3 4 4 4 3 1 1 1 2 2 1 4 7 6 5 5 7 7 7 9 9 10 11 11
2 3 3 4 5 6 7 7 7 7 6 7 7 7 6 4 2 1 2 6 7 6 5 4 6 8 8 5 4 3 2 8 12 14 16 15 14 12 11 10 10 10 7 4 5 6 5 5 5 4 5 5 5 3 2 1 2 1 3 4 4 4 4 3 3 4 3 2 2 2 2 2 1 1 2 5 8 7 7 6 6 7 7 7 8 9 10 10
2 2 3 4 5 5 6 6 6 7 7 6 6 6 5 5 3 3 5 8 8 6 7 9 11 9 7 5 6 2 5 10 10 13 14 13 13 12 11 10 11 10 7 4 4 6 5 5 6 6 5 5 4 2 2 1 0 2 3 4 4 4 3 1 2 3 2 2 2 5 4 2 4 2 2 5 8 8 7 7 7 7 7 7 8 7 7 9
2 2 2 3 3 4 5 6 6 6 6 5 3 4 5 4 4 5 7 9 8 8 11 12 9 3 4 4 3 2 8 10 9 14 13 11 11 12 12 11 11 10 9 5 4 6 7 7 8 5 2 4 3 2 3 1 0 3 4 3 3 3 3 2 2 2 1 1 2 5 6 3 5 3 2 6 8 8 8 8 8 7 7 7 8 6 5 6
2 2 2 2 3 4 5 5 5 5 4 3 4 5 5 4 4 6 7 8 8 9 11 9 4 3 5 5 6 4 8 8 9 12 11 9 10 11 10 9 9 9 10 7 5 6 7 7 8 5 2 4 2 2 2 1 1 3 3 2 3 5 3 3 2 1 2 0 2 4 6 6 7 4 4 9 8 8 8 8 8 7 7 7 7 6 5 7
2 3 3 3 3 4 4 4 4 4 4 4 5 5 5 5 6 8 8 9 8 8 9 5 1 4 5 3 4 4 8 7 9 13 12 10 9 8 6 7 7 7 8 7 6 6 6 7 7 3 3 4 1 1 1 2 1 2 4 3 2 4 3 2 2 2 3 1 1 2 3 4 6 6 6 9 8 9 8 7 8 7 6 7 7 6 6 8
2 3 3 3 3 3 4 4 4 4 3 4 5 5 6 6 10 12 12 11 8 7 6 3 1 3 2 3 2 6 10 8 10 15 13 12 11 6 3 5 6 5 6 5 4 4 5 6 5 1 2 3 2 1 2 2 1 2 4 3 3 3 1 2 1 2 2 2 2 1 2 4 3 7 7 8 8 9 8 7 8 7 7 6 6 6 6 8
3 2 2 3 3 4 4 4 3 2 2 4 4 5 6 7 12 11 11 10 8 6 3 0 2 3 1 4 1 5 11 10 12 14 13 12 12 8 5 7 5 3 3 2 3 4 4 5 4 1 2 1 2 2 2 3 3 3 2 3 3 3 2 2 1 2 2 1 3 2 3 5 2 7 8 7 8 9 8 7 8 8 8 7 6 7 6 7
5 5 3 3 3 4 3 3 2 1 4 5 6 7 8 7 8 7 4 3 4 4 2 2 3 5 1 3 1 4 10 11 12 12 10 10 9 8 9 8 6 4 3 3 4 4 4 3 1 1 0 2 2 2 3 3 3 3 2 4 3 1 2 2 1 1 2 1 3 4 4 5 1 6 7 7 9 9 8 8 9 9 9 8 7 7 7 7
6 6 5 4 2 3 2 1 1 4 7 8 10 10 10 10 7 3 0 2 2 2 2 4 4 2 2 3 1 4 9 9 11 11 11 10 7 8 9 8 6 5 5 6 6 5 4 1 0 1 2 0 3 3 3 2 1 1 1 4 4 3 2 1 1 1 2 1 3 5 7 8 7 5 9 9 10 10 9 8 9 9 8 8 7 7 8 8
4 5 7 5 2 1 1 0 3 7 8 10 11 11 12 12 12 10 6 2 2 3 1 5 6 1 3 5 4 7 9 9 10 12 13 11 6 8 9 7 6 6 7 6 5 3 1 1 2 1 1 4 6 4 2 2 2 4 4 4 4 5 6 4 1 1 3 2 4 7 8 11 12 7 9 10 10 10 10 8 8 8 8 8 8 8 8 9
4 4 6 6 3 0 1 3 7 11 12 12 12 12 13 12 11 12 14 9 2 1 1 4 5 1 1 6 7 10 9 7 8 12 15 13 9 11 10 8 6 6 6 3 0 2 2 1 1 1 3 4 5 4 3 3 4 5 5 3 4 5 5 3 2 2 3 3 6 7 8 10 12 8 7 10 10 10 9 7 7 7 7 8 8 8 8 9
5 5 5 6 3 2 5 8 12 16 15 12 8 6 6 4 3 5 11 11 6 4 4 4 5 3 1 5 9 13 7 5 5 13 18 17 12 11 7 6 6 3 2 3 3 2 1 2 3 3 3 4 5 5 4 5 4 5 5 4 6 5 5 3 2 3 3 2 5 6 9 12 12 11 7 9 10 9 9 8 7 7 7 8 8 8 9 9
6 5 5 6 2 4 9 13 15 15 11 6 2 2 0 1 1 2 2 5 5 5 5 2 4 6 3 4 8 11 5 4 3 14 21 19 9 5 3 3 3 1 2 2 2 2 1 2 4 3 4 4 4 4 4 5 5 5 4 5 6 3 5 6 3 2 2 1 5 8 10 14 13 12 10 6 10 10 11 10 9 9 8 7 9 10 10 8
7 7 6 6 2 5 11 14 13 11 6 1 3 5 2 2 2 6 3 3 3 4 4 3 3 6 4 3 6 10 5 2 4 13 22 20 7 2 5 4 2 2 2 2 2 1 2 4 3 3 4 3 4 3 3 4 5 5 4 4 5 3 5 5 2 1 1 1 5 8 9 14 15 12 12 8 10 10 10 11 9 9 9 9 9 9 9 8
8 8 7 6 2 5 11 13 13 12 9 5 5 4 2 3 8 8 2 3 2 3 3 4 5 7 6 5 9 11 5 4 6 9 19 18 6 3 6 4 4 4 4 5 3 1 2 3 4 3 3 4 3 2 4 4 4 4 3 3 3 4 5 3 2 3 5 5 7 8 8 13 14 9 10 9 9 7 8 10 9 8 9 9 9 8 9 9
9 8 7 5 2 5 7 9 10 10 8 6 3 1 4 7 9 5 1 2 3 1 2 3 3 5 5 3 7 8 4 5 5 7 14 13 5 4 3 4 4 3 4 6 4 5 3 3 2 2 2 3 4 3 4 4 3 0 2 3 2 4 4 5 6 8 9 7 5 5 6 8 6 4 6 5 7 6 6 7 7 8 8 8 8 8 9 10
10 8 6 4 3 4 5 6 6 7 8 6 2 3 7 8 4 2 2 1 1 2 1 0 1 2 3 2 5 4 1 3 4 7 10 9 6 3 1 1 2 3 5 6 3 5 3 2 1 3 2 3 4 2 3 4 5 2 2 2 2 4 6 7 8 8 6 4 1 1 4 5 3 4 6 4 6 6 6 7 8 8 7 7 8 9 9 9
11 8 5 2 2 5 5 4 5 6 6 4 4 7 9 7 1 4 2 2 0 1 0 1 1 2 3 5 6 1 1 1 3 6 7 6 3 1 1 1 1 3 4 4 2 1 1 2 0 2 3 4 4 0 3 3 4 2 2 1 2 4 6 7 7 5 3 4 3 3 1 4 5 7 7 6 7 7 6 7 9 7 7 8 8 9 8 9
11 7 3 1 3 7 3 1 5 7 3 3 7 10 10 6 0 3 1 2 0 1 1 1 0 3 3 6 7 2 1 3 2 4 7 6 3 1 1 2 1 2 2 1 1 0 0 2 1 2 3 5 3 1 1 2 2 2 3 2 4 5 6 7 6 3 3 6 4 5 3 4 5 7 3 6 6 7 7 8 9 8 9 10 10 10 10 10
11 6 2 1 4 8 3 1 5 5 1 3 10 12 9 3 1 2 2 1 0 1 1 2 0 2 2 5 6 4 1 4 2 3 6 6 4 2 0 3 2 2 2 1 0 1 2 1 1 1 2 3 1 0 1 2 1 2 2 3 5 5 6 6 4 4 5 5 4 4 3 3 5 5 1 3 4 7 8 9 10 10 11 11 11 11 11 11
10 5 2 2 3 5 3 2 4 3 2 7 13 12 6 1 1 1 1 2 0 1 0 0 1 2 3 3 3 4 1 2 2 3 5 4 3 1 1 3 1 2 2 2 0 1 1 2 2 0 1 1 2 1 2 2 2 3 3 6 6 5 5 4 3 4 4 4 4 2 2 2 5 7 3 1 3 6 7 7 8 10 11 11 11 11 11 10
9 5 1 3 4 2 2 1 2 3 4 11 14 10 3 0 1 1 1 2 0 1 1 1 1 2 4 2 1 3 3 3 2 3 3 1 0 1 2 2 1 1 2 1 1 1 2 3 1 1 0 1 2 3 2 4 5 5 5 7 6 4 3 3 4 3 2 3 3 0 1 2 4 6 4 2 3 5 4 3 3 5 8 10 10 10 10 9
11 6 1 2 2 2 1 1 2 5 9 13 12 6 1 0 1 1 1 1 1 0 1 2 1 2 4 2 1 3 3 2 3 4 2 0 0 1 1 1 1 1 1 1 0 1 2 1 1 1 1 1 1 4 3 3 3 3 3 4 4 2 1 1 2 2 1 3 1 1 2 1 3 6 5 5 5 5 6 5 5 4 4 6 8 9 9 8
12 9 4 2 2 2 2 2 5 8 12 13 9 2 1 1 1 1 0 1 0 1 0 1 2 2 3 2 1 3 2 1 3 3 2 2 2 3 3 2 1 1 0 1 1 1 2 2 2 2 1 0 1 3 1 1 2 3 3 4 4 2 1 1 1 1 2 2 2 2 1 3 6 8 10 12 12 6 6 7 6 4 4 5 5 6 8 7
12 10 7 3 2 3 4 7 8 9 12 11 4 1 2 2 1 1 1 1 1 1 0 0 1 2 3 2 1 2 1 1 2 1 1 2 1 1 2 2 1 1 1 2 3 1 1 1 2 2 0 1 2 2 1 1 2 2 1 3 3 2 2 3 3 3 3 2 2 3 1 4 6 7 10 11 8 3 4 5 3 2 2 5 6 2 5 5
10 9 8 8 6 6 7 8 8 9 11 6 2 1 1 1 0 0 0 1 0 0 1 1 1 1 2 1 1 2 1 1 2 2 1 2 1 1 1 2 2 1 1 2 2 1 1 2 2 2 1 2 2 0 1 1 3 2 0 1 0 0 2 3 2 3 4 4 3 2 2 4 4 4 6 7 5 4 4 3 2 1 2 4 6 3 1 3
8 8 9 9 8 6 6 6 7 9 7 3 2 1 1 0 1 0 0 1 1 1 2 1 1 2 1 2 1 1 1 1 1 1 2 2 1 1 1 2 3 2 1 1 1 0 3 3 1 0 1 2 1 1 2 0 2 2 1 2 1 2 2 2 3 5 4 5 4 2 2 5 5 8 9 8 7 6 5 4 3 3 5 4 4 4 4 5
6 6 7 8 7 5 3 5 7 6 3 2 2 1 1 0 1 2 1 0 1 1 1 2 0 2 1 2 1 1 1 0 1 1 1 1 1 1 1 1 2 2 2 1 1 1 2 3 2 1 1 1 1 1 1 1 0 1 1 1 2 1 1 1 4 4 1 3 4 3 5 5 4 9 9 3 4 5 4 3 4 6 6 5 5 6 6 7
5 3 3 6 7 3 3 5 5 4 1 2 2 1 0 1 0 1 1 1 0 1 0 1 0 1 1 1 1 1 1 0 0 1 1 0 1 1 3 1 2 1 2 1 1 1 1 3 3 3 1 1 1 2 2 2 1 1 1 1 1 1 2 1 3 3 1 4 4 4 8 6 3 6 4 3 3 6 5 6 6 7 7 6 7 7 7 8
4 2 0 5 6 2 3 4 3 2 2 2 1 1 1 0 0 1 2 1 0 1 0 1 0 1 1 1 0 0 0 1 0 1 1 1 1 0 3 2 2 2 1 1 1 1 1 2 2 1 0 1 1 1 3 3 0 1 2 2 1 0 0 1 1 2 3 5 5 6 9 6 3 6 6 5 7 7 6 7 5 5 6 6 6 7 7 8
4 3 0 4 5 2 4 3 2 2 3 2 0 1 1 1 2 2 3 2 1 1 0 0 0 1 0 1 1 0 1 1 2 1 1 0 1 1 1 1 0 1 1 1 1 0 0 1 2 2 1 2 1 1 2 2 1 0 3 2 1 1 1 2 1 0 2 4 6 8 8 4 5 6 7 8 6 3 4 4 4 5 5 5 6 6 7 7
4 2 1 4 3 3 4 3 2 2 1 1 1 1 0 1 2 2 3 2 1 1 1 1 1 0 0 1 0 0 1 1 2 2 1 1 1 1 1 1 2 3 1 2 2 2 0 2 2 2 1 1 2 3 4 3 4 3 2 2 2 1 1 1 1 1 2 3 5 7 9 6 4 3 6 7 5 4 3 5 6 6 6 6 6 6 7 6
2 1 1 3 1 2 2 1 1 1 0 1 2 2 0 1 2 2 1 3 1 1 1 2 1 1 1 0 1 0 0 2 2 1 2 1 1 0 1 1 4 5 2 2 1 2 1 2 3 3 3 3 4 3 1 2 3 4 4 5 5 4 2 0 3 2 2 3 4 4 10 12 4 1 5 7 6 6 4 4 6 7 6 7 7 7 7 6
2 1 2 2 1 2 1 1 1 1 1 1 1 2 0 1 2 2 1 1 1 1 1 0 1 1 1 1 1 1 1 2 2 2 2 2 1 1 2 1 4 6 2 1 1 1 0 1 4 5 7 5 2 1 3 3 1 1 2 4 4 4 5 4 3 2 1 3 2 1 7 12 5 3 5 5 4 5 4 4 6 7 7 8 8 8 8 7
0 0 2 2 1 2 1 1 1 1 2 1 1 1 1 1 2 1 1 1 1 1 1 1 1 0 1 1 1 1 1 1 2 2 1 1 0 0 2 1 4 5 2 0 1 1 1 1 2 5 7 3 1 2 2 3 3 1 3 4 3 4 4 3 3 1 1 4 3 0 6 11 7 1 4 4 3 4 4 4 6 7 7 8 8 8 8 7
1 1 2 2 2 3 1 1 1 2 2 1 1 1 1 1 1 1 2 2 2 0 1 1 1 0 1 1 2 1 1 1 2 2 1 1 0 1 2 1 2 2 2 1 1 1 1 2 2 3 6 3 2 1 1 3 1 2 4 5 7 6 4 2 0 2 2 8 7 3 8 11 4 2 3 3 2 5 5 6 7 7 7 7 7 7 7 7
1 0 0 2 3 3 0 1 1 3 3 2 2 2 2 1 1 1 0 2 1 0 0 0 1 0 0 1 1 1 1 2 2 1 1 1 1 1 1 2 1 1 1 1 1 0 1 2 2 2 3 4 6 4 1 1 1 3 3 5 8 9 8 4 2 2 4 7 6 6 11 14 9 6 5 5 7 8 7 7 7 6 7 8 7 7 7 7
0 0 1 0 2 3 2 0 1 3 4 3 2 2 3 2 1 0 1 0 1 1 0 1 0 1 1 1 2 3 4 5 3 2 2 2 1 1 1 1 1 1 2 2 2 1 1 3 4 6 7 7 9 7 2 3 5 6 7 6 7 8 10 7 3 5 8 5 4 10 14 15 18 16 11 9 10 11 10 10 10 10 10 9 8 8 8 7
0 1 1 1 1 2 2 1 1 2 2 3 2 2 3 2 2 1 1 1 1 0 1 2 2 2 3 3 3 4 4 4 4 3 3 4 1 2 1 1 1 2 2 1 1 0 1 4 6 10 13 14 14 13 8 7 8 11 13 12 9 7 10 10 9 13 10 3 9 17 14 13 17 16 14 13 13 14 13 12 11 11 10 9 9 9 9 9
0 1 1 1 0 1 1 0 0 2 0 1 0 2 4 3 2 2 1 0 0 1 2 3 4 6 5 4 2 2 2 3 4 4 3 3 2 2 2 1 2 3 3 1 1 1 2 5 5 8 12 15 15 14 11 9 11 12 15 17 13 9 12 15 18 19 11 6 15 21 17 17 17 15 16 17 15 15 14 13 11 10 10 9 9 9 9 9
1 1 0 1 0 2 1 2 1 2 1 1 0 3 4 5 5 3 2 2 1 3 4 3 5 8 8 6 4 2 3 3 3 4 3 2 3 2 2 1 2 3 3 3 2 1 1 3 3 4 7 13 14 14 12 12 13 13 15 17 14 12 14 17 19 19 15 15 20 21 22 23 18 14 16 16 13 12 11 10 9 9 10 10 10 11 11 10
1 1 1 0 2 3 1 1 1 2 2 1 1 3 3 5 6 2 2 4 3 3 5 4 5 6 7 7 6 6 7 4 4 4 4 3 3 3 3 2 3 2 3 4 2 2 2 1 1 1 4 11 13 11 10 10 9 11 15 17 16 15 15 15 15 15 13 15 19 18 19 19 13 10 12 12 10 9 9 9 10 10 10 12 13 13 13 12
0 1 1 1 2 2 1 0 0 1 2 2 2 3 2 5 6 4 3 6 4 4 7 7 5 3 4 6 9 11 9 4 5 3 4 4 4 3 2 1 5 5 4 4 3 4 4 2 1 1 4 9 7 5 5 6 7 11 17 19 15 11 9 9 9 9 9 12 15 14 11 11 10 9 10 10 10 10 11 11 11 11 12 14 15 15 14 12
1 1 1 1 0 1 1 1 0 1 1 1 2 3 2 2 3 4 3 3 1 1 4 6 3 1 3 7 10 8 3 1 3 3 1 3 4 3 4 2 5 7 6 5 3 3 4 3 2 1 4 7 4 3 5 8 9 10 9 8 7 5 4 4 4 6 6 7 8 9 8 9 11 11 11 12 12 12 11 11 11 12 14 16 15 14 12 10
Wind_Direction
282 306 325 323 319 317 309 302 292 288 284 280 279 278 277 275 275 272 268 268 264 265 264 262 253 235 218 198 168 176 174 194 196 73 69 36 348 336 328 323 321 326 329 330 313 301 282 238 224 207 221 224 209 247 177 180 225 177 227 241 249 257 257 360 22 1 23 104 136 145 111 109 133 116 132 148 102 107 107 94 78 65 64 71 80 103 126 144
44 9 344 332 323 313 302 296 291 288 285 282 281 280 281 278 276 272 267 265 261 263 258 250 241 219 202 182 173 188 189 251 240 80 60 356 343 330 321 320 320 324 324 320 313 312 299 278 253 197 216 241 200 204 156 170 202 207 243 231 249 271 22 19 24 16 22 59 120 127 48 69 134 143 163 176 134 135 133 120 105 88 87 93 102 115 128 139
42 15 355 342 326 310 298 294 295 295 293 290 291 293 296 294 287 278 266 259 255 253 246 235 227 204 194 183 180 191 237 280 256 80 22 339 338 326 322 321 322 326 319 304 308 309 301 301 300 257 226 242 214 186 176 173 187 209 238 238 268 359 61 33 23 16 12 355 353 115 76 64 103 133 172 197 164 173 174 149 151 144 136 126 126 135 139 139
37 21 9 359 349 337 323 318 323 322 316 315 324 328 325 316 302 290 272 254 245 237 236 223 209 197 194 190 189 198 291 293 283 39 348 338 339 336 336 331 337 340 323 294 293 288 285 288 286 268 244 253 238 208 209 179 153 201 230 242 337 4 14 29 25 9 4 345 344 82 106 102 93 106 191 240 196 191 171 105 179 165 149 146 148 149 149 147
37 25 14 5 5 1 354 343 343 347 347 348 345 341 333 323 312 303 290 256 235 226 224 208 197 195 193 198 198 210 287 290 31 3 342 343 349 353 355 355 359 354 346 306 286 279 272 269 263 256 247 259 255 228 224 205 185 235 251 56 23 8 5 20 24 7 352 331 343 74 123 119 117 129 7 328 268 199 88 47 51 132 144 154 158 159 158 155
40 21 10 5 8 8 5 358 358 4 1 354 346 337 328 321 318 311 306 272 222 214 210 192 192 188 188 200 198 215 256 353 23 351 341 344 353 358 5 11 7 8 1 311 283 274 262 256 245 241 235 245 256 247 241 216 176 237 274 70 35 25 45 20 22 10 351 348 10 45 76 123 153 174 71 36 59 99 78 59 59 109 141 153 158 163 165 164
43 25 13 9 9 9 8 5 5 7 4 356 342 331 323 315 317 311 304 262 195 193 186 178 182 177 178 180 183 219 231 37 6 346 341 347 356 1 10 12 4 3 342 311 296 280 267 260 244 247 249 243 255 253 270 243 158 232 263 85 56 47 65 39 32 23 16 37 38 34 228 213 201 210 129 112 110 114 106 86 82 102 133 150 160 168 170 172
41 32 18 12 9 8 6 3 3 3 0 352 337 328 325 319 315 300 284 178 163 163 165 170 177 168 164 166 189 223 206 359 346 343 343 350 3 6 8 7 355 342 317 309 318 303 295 276 253 260 260 256 289 287 352 321 222 243 279 91 86 72 75 66 61 52 43 55 39 331 233 35 40 3 242 156 132 136 139 119 117 120 136 160 172 178 176 181
29 27 13 12 6 6 3 357 359 358 356 353 343 336 340 352 351 316 141 143 141 147 156 153 157 156 159 178 256 242 40 342 333 344 346 352 4 4 3 3 351 333 315 318 325 308 304 300 283 305 306 294 316 344 38 346 273 320 65 88 100 96 85 78 73 62 51 55 357 300 236 168 112 328 272 151 137 140 147 146 147 146 158 174 182 190 187 188
350 1 359 8 3 2 355 351 356 354 357 360 353 351 0 18 40 101 124 133 134 144 145 139 145 153 182 238 274 257 13 344 336 347 346 352 358 0 5 2 354 342 331 336 351 340 326 335 333 330 333 307 306 355 9 353 340 73 81 79 92 105 95 82 84 82 72 73 350 304 282 205 153 210 245 138 135 146 155 160 160 161 168 173 181 193 196 193
306 327 335 351 354 352 345 349 358 355 357 8 19 17 24 40 71 108 125 133 135 145 145 147 154 177 261 299 1 23 358 346 346 350 346 349 348 353 4 0 357 352 337 335 27 9 342 344 337 317 340 324 317 57 46 7 144 111 114 100 115 143 124 158 138 118 209 113 355 309 296 243 161 209 218 136 147 160 165 169 170 179 174 172 179 181 191 195
280 280 292 318 340 345 344 349 356 354 360 35 59 48 57 71 91 112 126 135 139 149 156 167 185 292 305 26 53 5 349 349 350 352 348 347 332 335 358 358 357 356 345 353 32 12 353 346 326 306 345 333 322 92 69 294 241 141 184 179 162 183 164 182 155 116 249 187 359 313 295 249 191 194 133 135 159 169 176 179 177 189 181 177 183 181 190 194
280 271 281 305 326 335 341 346 360 2 12 55 61 65 80 86 107 112 115 124 132 146 161 180 224 301 305 54 76 3 9 6 358 357 353 355 336 324 357 2 1 6 4 19 30 7 358 341 321 333 7 342 8 104 306 257 226 167 230 248 203 210 182 164 150 194 232 164 331 299 298 271 186 162 136 145 168 173 185 192 182 193 188 184 185 187 196 195
302 288 287 297 313 329 339 349 10 12 25 67 66 77 88 107 120 111 105 111 118 136 155 175 265 297 314 97 108 24 26 19 9 2 355 360 352 337 358 358 360 13 15 31 23 357 346 327 312 69 54 6 74 186 246 201 212 227 236 245 229 238 187 142 159 232 237 173 219 252 270 281 162 154 159 164 175 179 192 197 188 195 193 189 187 193 201 199
6 345 322 314 324 332 339 354 14 27 87 88 76 82 88 121 135 123 106 100 95 103 116 143 308 289 144 109 126 24 23 16 9 1 355 357 351 341 342 341 335 336 351 358 341 329 318 305 278 187 86 82 145 205 232 200 212 213 236 266 233 221 173 129 57 345 357 186 204 196 266 281 174 164 175 171 180 190 201 202 194 197 198 195 193 196 203 203
35 28 3 343 334 330 339 357 10 116 122 103 95 96 90 106 143 154 128 69 59 67 18 310 300 289 236 87 76 21 18 13 2 355 354 351 341 333 329 315 288 274 283 276 280 276 284 305 309 313 227 202 208 249 264 241 215 182 213 275 274 226 163 133 64 2 4 341 207 208 253 287 238 160 173 182 188 195 208 211 203 200 199 199 198 199 202 202
37 35 22 8 336 330 346 345 150 141 129 115 106 101 93 88 99 122 311 322 66 82 1 351 341 341 61 41 11 1 1 1 358 358 356 346 331 330 325 304 284 278 271 258 252 250 247 251 91 233 232 330 5 330 294 289 300 35 349 299 318 355 325 256 138 30 335 275 232 241 251 267 264 196 178 192 194 197 211 212 209 204 199 200 200 202 202 203
24 29 27 18 352 356 19 239 161 149 136 126 114 104 97 87 80 69 42 6 181 167 106 18 4 58 66 27 7 348 343 339 348 360 358 352 335 324 315 295 297 290 279 257 235 259 263 204 213 216 40 31 21 8 349 342 328 339 346 319 326 339 318 309 104 56 350 289 269 275 263 267 271 239 182 192 197 201 213 211 211 209 202 202 201 206 206 205
359 4 15 14 8 61 148 138 139 138 130 123 116 112 107 96 87 65 44 39 32 201 108 5 356 247 41 32 4 337 326 307 341 9 3 357 339 316 296 272 273 278 288 292 293 332 352 329 282 341 28 23 18 21 3 334 324 317 318 306 302 304 303 328 83 83 24 328 276 272 271 276 280 265 194 192 200 205 217 216 214 214 208 206 205 211 209 209
2 356 2 4 5 177 158 143 137 130 124 114 105 116 124 111 106 61 35 40 48 54 65 6 13 49 22 20 355 345 335 273 345 21 5 351 329 306 292 259 248 250 313 352 359 353 12 42 43 36 21 14 5 4 340 322 315 307 314 303 289 292 296 317 74 93 58 342 273 279 288 282 281 276 239 196 192 205 218 217 216 215 212 212 211 215 214 214
8 0 353 350 348 180 169 157 146 140 134 106 59 285 233 335 319 130 59 49 40 33 65 36 31 70 37 352 352 352 347 244 7 21 4 354 331 286 308 296 261 233 51 359 322 329 13 58 62 40 20 5 338 334 326 316 312 301 299 297 292 310 315 320 28 92 95 64 280 292 295 284 277 275 267 204 181 205 213 211 216 214 212 215 214 217 217 216
7 355 341 336 330 185 181 174 166 173 194 248 294 290 1 11 147 147 160 98 50 347 49 55 50 71 37 8 358 340 329 284 11 16 360 354 3 355 335 337 1 25 24 344 290 264 84 76 53 29 16 328 285 293 303 294 300 292 278 293 302 349 345 327 36 99 139 136 277 299 303 287 281 271 267 230 191 206 206 205 214 210 212 216 214 217 214 211
1 353 339 324 301 184 187 194 202 215 232 251 282 301 30 124 147 151 184 110 105 309 36 46 46 47 20 27 4 348 22 31 353 7 356 350 8 9 337 358 25 25 18 5 357 14 90 69 30 18 349 318 300 317 323 301 272 259 285 312 309 2 10 309 316 321 284 260 272 298 301 285 284 272 259 231 192 194 198 204 215 211 215 218 213 213 210 210
357 351 342 320 261 188 185 194 208 221 224 229 276 342 136 148 146 147 273 108 111 96 75 40 49 47 28 27 347 345 61 55 358 357 356 354 355 322 336 18 8 32 30 7 45 85 76 64 21 330 276 312 312 322 2 339 308 301 15 353 331 349 336 278 300 309 290 277 269 298 300 278 271 246 245 213 166 187 197 200 219 221 224 225 219 215 210 210
351 347 345 320 239 189 172 166 188 212 209 208 228 168 161 160 153 18 339 188 122 113 125 227 151 48 27 335 335 343 72 54 26 360 357 5 353 318 346 4 341 47 26 355 53 98 80 84 342 313 294 299 292 317 40 354 317 349 28 2 356 325 298 282 301 308 304 307 232 303 313 290 274 246 238 183 166 206 202 201 223 224 221 224 225 224 216 212
347 346 348 313 216 173 166 177 193 192 184 191 206 182 168 170 162 11 344 242 143 109 302 186 181 19 14 332 340 40 162 14 21 0 6 13 355 299 2 344 65 57 28 4 23 93 83 113 268 321 310 291 273 269 37 358 323 302 242 290 307 291 287 287 300 306 305 298 246 166 228 286 302 288 252 186 188 216 206 212 227 223 219 220 222 224 220 216
346 346 350 349 175 170 170 215 177 165 161 205 197 177 166 173 91 20 300 249 234 203 356 53 154 17 27 336 341 100 129 333 334 18 19 6 344 212 357 20 63 72 61 30 47 202 57 118 201 290 278 281 271 158 28 19 339 262 215 247 285 286 285 285 296 283 261 291 273 178 196 276 284 287 257 161 191 227 222 222 226 219 217 218 220 221 219 217
350 351 359 55 176 187 205 39 159 169 230 189 172 166 164 178 319 354 286 270 325 236 5 50 325 6 4 333 7 85 106 314 321 23 3 346 336 258 168 39 28 95 109 281 93 223 270 142 124 312 291 288 310 91 90 75 312 248 229 270 279 278 277 280 287 270 265 299 291 198 198 270 263 277 323 126 203 242 235 225 221 217 215 215 217 217 217 217
358 358 24 71 140 190 211 193 180 205 216 164 160 159 157 178 297 324 282 266 351 112 357 49 177 354 332 311 29 68 64 357 16 342 325 332 2 358 65 32 1 119 165 232 124 182 221 74 84 171 290 303 321 330 114 146 246 279 305 288 269 249 254 262 256 267 286 285 268 217 203 265 274 271 274 63 266 254 241 230 216 208 207 210 213 214 214 214
9 7 49 107 103 127 176 189 208 212 170 161 158 153 148 285 274 264 254 249 91 107 270 345 214 294 330 316 64 42 37 44 6 312 310 306 154 86 61 7 297 200 200 196 83 106 115 58 49 171 301 354 338 307 233 209 261 309 316 290 273 237 219 238 235 247 309 271 236 184 278 313 307 274 247 225 226 199 200 248 243 207 200 204 209 210 210 207
17 17 336 184 138 133 168 172 177 170 159 159 158 151 152 253 254 267 260 228 90 101 265 26 31 291 348 10 57 16 22 42 357 343 358 355 303 19 35 11 309 272 230 181 105 119 145 167 167 122 358 33 303 280 233 207 264 308 295 287 302 281 201 245 219 185 273 270 237 36 338 291 258 269 261 251 242 196 187 221 235 240 231 220 213 206 203 202
19 22 19 254 211 170 149 143 145 151 154 157 159 161 249 234 223 227 285 242 269 6 353 57 36 355 2 6 10 3 357 358 357 3 359 348 38 22 358 15 11 313 59 3 311 186 188 201 138 111 12 150 235 282 265 181 242 257 269 317 330 321 326 296 240 224 236 231 189 144 2 254 242 263 268 270 278 262 215 212 215 230 257 278 260 208 193 195
24 30 41 48 142 130 110 129 137 144 153 157 168 237 256 263 265 116 60 335 305 352 49 234 351 342 323 321 10 1 313 277 330 15 322 279 162 90 1 25 6 220 163 333 318 319 333 322 152 149 148 191 224 293 330 219 289 284 300 359 345 350 339 294 278 284 271 255 202 143 75 281 269 272 255 254 269 245 177 191 207 230 251 294 304 230 173 182
34 39 54 61 77 95 107 127 135 143 152 160 206 249 278 293 247 236 15 63 43 194 129 39 318 287 308 8 50 352 283 227 296 321 266 253 218 169 110 55 20 301 241 313 336 16 303 287 217 177 175 193 216 206 178 247 298 285 125 48 348 206 260 262 291 289 285 303 279 138 106 251 255 261 230 221 213 173 162 179 187 290 273 290 314 327 182 207
41 42 51 53 58 73 104 131 140 145 155 184 236 230 293 298 124 113 216 111 114 152 140 90 328 285 244 106 103 2 68 182 274 322 264 255 327 33 90 61 31 10 303 300 21 10 239 241 206 91 226 203 192 157 154 303 303 276 24 43 209 213 238 261 289 274 283 309 282 205 215 227 239 271 264 253 238 206 190 188 189 250 253 240 266 270 246 236
28 26 37 37 34 47 105 141 145 144 156 246 245 230 295 36 49 18 5 93 142 116 145 151 340 286 210 139 183 252 126 236 281 289 262 275 24 50 101 52 28 26 7 3 44 12 289 254 175 140 297 325 52 19 177 154 33 316 337 283 220 218 82 312 287 285 312 294 255 210 251 270 296 285 278 278 253 222 197 198 211 236 232 212 228 243 238 236
360 350 28 26 19 34 130 147 155 160 204 268 268 270 124 133 312 345 9 325 245 63 93 204 174 286 270 108 161 198 141 261 269 270 265 105 39 121 130 106 348 23 76 87 94 78 321 273 202 173 270 307 25 339 276 221 128 97 244 270 293 329 63 77 298 318 316 266 254 226 256 283 312 286 310 37 263 243 223 216 226 234 220 211 231 236 229 229
331 311 49 22 14 49 147 152 168 199 255 268 248 118 116 99 62 18 5 324 269 78 261 270 132 116 346 345 93 133 36 357 38 276 265 188 279 268 129 123 338 359 77 80 69 82 333 293 252 233 302 155 165 312 280 256 143 124 277 302 24 50 330 147 246 309 296 281 280 257 259 263 228 252 288 289 256 243 226 216 229 250 231 222 240 238 230 228
277 271 206 24 20 106 153 169 202 243 256 261 259 121 101 68 81 49 357 321 328 38 91 312 55 134 103 355 344 107 113 348 334 325 317 131 280 285 140 129 124 101 47 38 51 6 131 158 268 299 43 130 158 216 224 219 155 346 315 319 113 140 226 207 174 269 254 281 291 286 285 259 201 229 264 262 252 232 233 246 274 281 260 248 256 253 244 232
264 263 77 29 34 123 160 197 250 261 254 295 5 39 122 118 108 72 1 344 3 16 6 14 35 107 148 141 253 310 140 249 296 307 292 183 249 286 351 59 129 142 57 25 3 312 269 171 243 300 8 139 192 204 197 169 155 165 188 198 179 160 171 291 290 193 197 258 283 295 296 271 207 230 275 276 292 298 283 289 286 275 274 276 276 271 261 245
261 205 42 24 52 157 178 183 338 302 154 90 76 58 27 164 122 112 29 10 23 86 42 350 332 329 328 234 140 59 277 238 229 259 268 231 199 261 316 52 133 145 111 46 298 276 223 218 263 285 279 253 224 207 165 114 146 159 171 182 182 170 149 293 271 230 195 237 243 278 292 283 257 211 265 270 281 280 273 282 277 274 280 282 278 269 260 252
263 197 7 21 186 244 247 76 11 331 60 60 91 65 23 204 123 137 127 42 357 156 134 269 249 264 316 14 86 140 263 263 215 205 248 232 139 109 302 306 140 149 152 90 171 214 91 270 280 272 259 256 247 117 75 41 30 129 182 192 180 176 180 200 239 240 189 242 260 331 282 280 272 175 225 241 239 249 249 253 265 271 274 275 275 272 267 263
289 121 20 43 224 286 318 86 333 14 69 84 232 61 11 212 117 142 189 176 174 176 209 193 137 269 343 41 21 165 156 244 229 207 255 300 108 125 295 286 139 152 181 158 168 162 124 212 240 269 267 258 102 116 92 27 16 349 239 212 204 209 187 186 209 158 169 243 244 173 261 272 286 214 198 194 201 243 255 254 257 263 270 274 275 276 275 271
44 37 32 26 343 329 318 159 129 109 105 153 171 93 336 279 101 137 197 184 179 199 231 191 116 154 60 37 299 257 109 230 235 209 264 313 259 277 305 336 114 156 192 183 167 140 169 223 212 296 301 302 329 335 356 3 18 237 238 205 209 208 126 81 210 99 297 247 215 212 262 264 278 75 128 142 233 259 260 257 255 262 282 289 289 289 288 283
73 5 31 36 25 38 99 252 96 117 134 161 156 156 193 194 55 339 290 149 170 299 282 302 32 268 81 55 300 272 241 225 216 101 33 274 220 202 309 341 6 35 87 39 341 53 223 253 220 246 280 280 289 286 246 307 270 230 219 196 209 197 161 169 226 162 247 243 189 196 252 264 281 304 306 307 297 287 288 294 295 301 308 308 306 303 299 293
78 318 214 189 20 50 104 269 52 111 144 170 170 172 186 166 108 249 311 81 140 105 150 178 76 344 196 172 248 251 223 206 213 322 302 234 215 124 159 303 358 63 58 12 315 324 288 264 234 228 234 243 261 268 299 358 317 283 270 250 227 199 184 190 193 209 235 259 249 236 245 268 285 291 299 310 308 304 310 318 319 316 313 311 307 300 297 291
31 270 198 188 324 19 71 99 114 109 157 191 168 146 171 159 115 156 273 326 127 176 242 194 171 193 181 174 237 245 208 184 206 258 251 227 228 82 139 258 147 126 90 12 273 185 270 263 229 225 240 250 261 275 303 323 294 278 279 272 246 203 190 194 210 230 239 281 274 261 258 269 281 292 308 314 311 310 313 314 312 309 306 302 297 295 296 294
6 247 209 186 302 70 70 269 150 90 105 240 115 142 168 165 165 196 214 67 107 224 219 195 206 220 213 202 232 240 202 191 210 222 216 218 221 142 161 217 156 148 141 161 215 171 248 269 230 218 244 259 268 278 288 288 273 264 269 270 259 222 198 206 224 236 237 236 257 270 283 283 282 296 305 304 306 306 305 303 302 301 299 297 299 301 301 299
73 65 239 266 23 96 106 289 283 133 148 351 107 183 187 187 196 202 137 123 224 219 197 211 224 214 213 220 227 230 212 202 234 235 195 189 221 205 216 224 150 153 182 183 191 173 204 265 248 228 265 273 274 277 271 262 262 262 261 262 260 244 222 219 231 240 241 244 254 269 281 281 284 294 295 295 297 295 296 303 308 311 314 313 312 310 305 300
162 116 147 174 78 90 108 273 209 170 172 357 252 191 192 204 201 184 139 168 195 183 178 220 240 204 198 207 210 225 226 222 275 264 181 170 217 209 224 220 136 153 212 194 185 188 182 256 269 141 287 280 275 276 268 256 261 274 275 270 265 260 247 235 238 244 246 253 261 268 275 278 285 289 286 289 297 305 315 323 323 322 321 317 313 308 303 300
130 108 134 134 104 115 176 239 269 234 194 192 210 183 193 216 197 176 193 203 199 169 179 206 235 201 185 205 220 236 245 258 294 285 171 183 220 201 206 171 124 142 195 198 178 176 187 258 337 87 286 285 284 285 290 303 298 281 277 277 274 271 261 244 239 240 237 251 267 275 276 281 292 297 298 305 316 324 327 327 326 324 320 313 307 304 303 303
130 80 108 32 55 170 175 130 219 277 251 202 196 163 166 213 172 154 195 220 196 138 181 196 197 159 194 218 229 238 256 312 300 302 216 232 262 259 256 231 149 150 173 183 172 162 180 240 305 2 284 289 315 342 333 335 317 287 274 279 286 300 322 327 313 290 264 252 269 283 285 293 308 320 325 325 328 329 328 328 327 319 312 307 304 308 314 320